N3368K UTDL-UCFO

Flight info

Callsign N3368K
Flight time 0h 55m
Altitude 7000
Route KEGIB1J KEGIB Z235 ENOVO T525 AFEKE AFEKE1L
Aircraft BE36/L-BDFGLORY/S

Departure

Time 2026-04-28 12:33
Airport Khujand International Airport (UTDL)

Arrival

Time 2026-04-28 13:28
Airport Osh International Airport (UCFO)
Time Latitude Longitude Altitude Speed Heading
2026-04-28 12:23 40.21829 69.69721 1422 ft 0 kts 261°
2026-04-28 12:29 40.21829 69.69720 1422 ft 0 kts 261°
2026-04-28 12:29 40.21827 69.69713 1423 ft 5 kts 237°
2026-04-28 12:29 40.21794 69.69754 1422 ft 13 kts 80°
2026-04-28 12:30 40.21813 69.69918 1419 ft 22 kts 83°
2026-04-28 12:30 40.21743 69.70069 1417 ft 19 kts 139°
2026-04-28 12:30 40.21720 69.70096 1416 ft 0 kts 135°
2026-04-28 12:30 40.21717 69.70100 1416 ft 4 kts 135°
2026-04-28 12:31 40.21650 69.70173 1413 ft 19 kts 134°
2026-04-28 12:31 40.21632 69.70362 1411 ft 27 kts 82°
2026-04-28 12:31 40.21662 69.70641 1405 ft 31 kts 83°
2026-04-28 12:31 40.21677 69.70877 1408 ft 13 kts 37°
2026-04-28 12:32 40.21688 69.70846 1407 ft 7 kts 234°
2026-04-28 12:32 40.21681 69.70827 1406 ft 0 kts 256°
2026-04-28 12:32 40.21655 69.70626 1412 ft 57 kts 261°
2026-04-28 12:33 40.21591 69.69918 1470 ft 93 kts 259°
2026-04-28 12:33 40.21477 69.69024 1690 ft 106 kts 259°
2026-04-28 12:33 40.21384 69.68044 2034 ft 113 kts 262°
2026-04-28 12:33 40.21269 69.67034 2418 ft 114 kts 262°
2026-04-28 12:34 40.21158 69.66024 2732 ft 112 kts 291°
2026-04-28 12:34 40.21773 69.65512 3094 ft 118 kts
2026-04-28 12:34 40.22429 69.66167 3413 ft 132 kts 66°
2026-04-28 12:34 40.22585 69.67367 3732 ft 136 kts 72°
2026-04-28 12:35 40.22823 69.68559 4069 ft 135 kts 70°
2026-04-28 12:35 40.23038 69.69781 4370 ft 139 kts 74°
2026-04-28 12:35 40.23241 69.71006 4743 ft 137 kts 72°
2026-04-28 12:35 40.23450 69.72238 4989 ft 138 kts 75°
2026-04-28 12:36 40.23654 69.73454 5304 ft 137 kts 76°
2026-04-28 12:36 40.23864 69.74690 5579 ft 139 kts 77°
2026-04-28 12:36 40.24069 69.75923 5886 ft 138 kts 77°
2026-04-28 12:36 40.24278 69.77157 6170 ft 138 kts 78°
2026-04-28 12:37 40.24484 69.78381 6449 ft 138 kts 78°
2026-04-28 12:37 40.24690 69.79608 6719 ft 138 kts 78°
2026-04-28 12:37 40.24897 69.80837 6943 ft 139 kts 78°
2026-04-28 12:37 40.25114 69.82136 6996 ft 153 kts 78°
2026-04-28 12:38 40.25348 69.83533 7006 ft 164 kts 78°
2026-04-28 12:38 40.25599 69.85031 7006 ft 172 kts 78°
2026-04-28 12:38 40.25858 69.86580 7008 ft 176 kts 77°
2026-04-28 12:38 40.26123 69.88163 7007 ft 180 kts 77°
2026-04-28 12:39 40.26393 69.89778 7003 ft 184 kts 77°
2026-04-28 12:39 40.26668 69.91423 7009 ft 186 kts 78°
2026-04-28 12:39 40.26941 69.93062 7006 ft 183 kts 78°
2026-04-28 12:39 40.27210 69.94674 7004 ft 180 kts 78°
2026-04-28 12:40 40.27476 69.96267 7001 ft 178 kts 77°
2026-04-28 12:40 40.27740 69.97851 7001 ft 178 kts 77°
2026-04-28 12:40 40.28004 69.99437 7000 ft 178 kts 78°
2026-04-28 12:40 40.28267 70.01017 7001 ft 178 kts 77°
2026-04-28 12:41 40.28530 70.02604 7002 ft 178 kts 77°
2026-04-28 12:41 40.28793 70.04191 6999 ft 178 kts 77°
2026-04-28 12:41 40.29056 70.05775 7000 ft 178 kts 77°
2026-04-28 12:41 40.29314 70.07334 7000 ft 177 kts 77°
2026-04-28 12:42 40.29575 70.08910 7001 ft 177 kts 78°
2026-04-28 12:42 40.29834 70.10480 6997 ft 176 kts 77°
2026-04-28 12:42 40.30093 70.12050 6998 ft 177 kts 77°
2026-04-28 12:42 40.30354 70.13627 6995 ft 178 kts 77°
2026-04-28 12:43 40.30615 70.15214 6995 ft 178 kts 77°
2026-04-28 12:43 40.30875 70.16793 6996 ft 177 kts 78°
2026-04-28 12:43 40.31135 70.18370 6994 ft 177 kts 77°
2026-04-28 12:43 40.31394 70.19947 6995 ft 177 kts 77°
2026-04-28 12:44 40.31651 70.21521 6984 ft 177 kts 77°
2026-04-28 12:44 40.31912 70.23094 6983 ft 176 kts 77°
2026-04-28 12:44 40.32082 70.24133 6984 ft 176 kts 77°
2026-04-28 12:44 40.32339 70.25701 6967 ft 176 kts 78°
2026-04-28 12:45 40.32594 70.27263 6984 ft 176 kts 77°
2026-04-28 12:45 40.32850 70.28830 6984 ft 176 kts 78°
2026-04-28 12:45 40.33107 70.30398 6979 ft 176 kts 77°
2026-04-28 12:45 40.33363 70.31970 6985 ft 176 kts 77°
2026-04-28 12:46 40.33619 70.33541 6984 ft 177 kts 77°
2026-04-28 12:46 40.33877 70.35120 6968 ft 177 kts 77°
2026-04-28 12:46 40.34135 70.36706 6969 ft 178 kts 78°
2026-04-28 12:46 40.34393 70.38291 6972 ft 178 kts 77°
2026-04-28 12:47 40.34648 70.39860 6972 ft 178 kts 77°
2026-04-28 12:47 40.34906 70.41451 6971 ft 179 kts 77°
2026-04-28 12:47 40.35200 70.43036 6969 ft 179 kts 75°
2026-04-28 12:47 40.35585 70.45154 6971 ft 179 kts 76°
2026-04-28 12:48 40.35775 70.46203 6969 ft 178 kts 76°
2026-04-28 12:48 40.36065 70.47779 6961 ft 177 kts 76°
2026-04-28 12:48 40.36353 70.49351 6960 ft 177 kts 76°
2026-04-28 12:48 40.36642 70.50923 6961 ft 178 kts 75°
2026-04-28 12:49 40.36930 70.52501 6963 ft 178 kts 76°
2026-04-28 12:49 40.37219 70.54077 6967 ft 177 kts 76°
2026-04-28 12:49 40.37507 70.55654 6956 ft 177 kts 76°
2026-04-28 12:49 40.37794 70.57221 6968 ft 177 kts 76°
2026-04-28 12:50 40.38081 70.58790 6967 ft 177 kts 76°
2026-04-28 12:50 40.38367 70.60359 6967 ft 176 kts 76°
2026-04-28 12:50 40.38652 70.61921 6958 ft 175 kts 76°
2026-04-28 12:50 40.38936 70.63476 6951 ft 175 kts 76°
2026-04-28 12:51 40.39220 70.65035 6955 ft 176 kts 76°
2026-04-28 12:51 40.39503 70.66600 6954 ft 176 kts 76°
2026-04-28 12:51 40.39784 70.68143 6947 ft 175 kts 76°
2026-04-28 12:51 40.40068 70.69699 6952 ft 175 kts 76°
2026-04-28 12:52 40.40350 70.71255 6953 ft 175 kts 76°
2026-04-28 12:52 40.40632 70.72811 6950 ft 176 kts 76°
2026-04-28 12:52 40.40914 70.74373 6955 ft 176 kts 76°
2026-04-28 12:52 40.41197 70.75927 6944 ft 175 kts 77°
2026-04-28 12:53 40.41478 70.77480 6947 ft 175 kts 76°
2026-04-28 12:53 40.41759 70.79040 6942 ft 176 kts 76°
2026-04-28 12:53 40.42042 70.80605 6949 ft 176 kts 76°
2026-04-28 12:53 40.42325 70.82175 6951 ft 177 kts 76°
2026-04-28 12:54 40.42609 70.83747 6951 ft 177 kts 76°
2026-04-28 12:54 40.42894 70.85325 6948 ft 177 kts 76°
2026-04-28 12:54 40.43175 70.86896 6956 ft 177 kts 76°
2026-04-28 12:54 40.43459 70.88474 6949 ft 178 kts 76°
2026-04-28 12:55 40.43743 70.90051 6948 ft 177 kts 77°
2026-04-28 12:55 40.44024 70.91618 6953 ft 176 kts 77°
2026-04-28 12:55 40.44304 70.93178 6949 ft 175 kts 76°
2026-04-28 12:55 40.44583 70.94735 6948 ft 175 kts 76°
2026-04-28 12:56 40.44862 70.96286 6953 ft 175 kts 77°
2026-04-28 12:56 40.45141 70.97845 6947 ft 174 kts 77°
2026-04-28 12:56 40.45417 70.99392 6945 ft 174 kts 77°
2026-04-28 12:56 40.45689 71.00920 6948 ft 174 kts 77°
2026-04-28 12:57 40.45969 71.02485 6949 ft 174 kts 76°
2026-04-28 12:57 40.46240 71.04012 6946 ft 174 kts 78°
2026-04-28 12:57 40.46252 71.05588 6950 ft 174 kts 97°
2026-04-28 12:57 40.46126 71.07168 6952 ft 174 kts 96°
2026-04-28 12:58 40.46014 71.08748 6953 ft 174 kts 96°
2026-04-28 12:58 40.45897 71.10334 6952 ft 174 kts 96°
2026-04-28 12:58 40.45779 71.11920 6968 ft 174 kts 96°
2026-04-28 12:58 40.45661 71.13502 6970 ft 174 kts 96°
2026-04-28 12:59 40.45543 71.15090 6972 ft 175 kts 96°
2026-04-28 12:59 40.45424 71.16683 6958 ft 176 kts 96°
2026-04-28 12:59 40.45306 71.18278 6965 ft 175 kts 96°
2026-04-28 12:59 40.45185 71.19875 6965 ft 175 kts 96°
2026-04-28 13:00 40.45067 71.21442 6963 ft 175 kts 96°
2026-04-28 13:00 40.44949 71.23031 6961 ft 175 kts 96°
2026-04-28 13:00 40.44829 71.24620 6964 ft 175 kts 96°
2026-04-28 13:00 40.44709 71.26203 6962 ft 175 kts 96°
2026-04-28 13:01 40.44591 71.27787 6962 ft 174 kts 96°
2026-04-28 13:01 40.44480 71.29375 6954 ft 175 kts 96°
2026-04-28 13:01 40.44369 71.30964 6955 ft 175 kts 96°
2026-04-28 13:01 40.44256 71.32559 6958 ft 176 kts 96°
2026-04-28 13:02 40.44140 71.34160 6958 ft 176 kts 96°
2026-04-28 13:02 40.44026 71.35763 6957 ft 176 kts 96°
2026-04-28 13:02 40.43911 71.37369 6962 ft 177 kts 96°
2026-04-28 13:02 40.43796 71.38976 6960 ft 177 kts 96°
2026-04-28 13:03 40.43680 71.40584 6967 ft 177 kts 96°
2026-04-28 13:03 40.43565 71.42193 6971 ft 177 kts 96°
2026-04-28 13:03 40.43449 71.43804 6971 ft 177 kts 96°
2026-04-28 13:03 40.43332 71.45413 6973 ft 177 kts 96°
2026-04-28 13:04 40.43216 71.47015 6982 ft 176 kts 96°
2026-04-28 13:04 40.43099 71.48618 6982 ft 176 kts 96°
2026-04-28 13:04 40.42983 71.50220 6984 ft 176 kts 96°
2026-04-28 13:04 40.42869 71.51789 6984 ft 176 kts 96°
2026-04-28 13:05 40.42750 71.53425 6986 ft 176 kts 96°
2026-04-28 13:05 40.42632 71.55026 6978 ft 176 kts 96°
2026-04-28 13:05 40.42515 71.56623 6990 ft 176 kts 97°
2026-04-28 13:05 40.42400 71.58204 6989 ft 176 kts 97°
2026-04-28 13:06 40.42282 71.59808 6993 ft 176 kts 97°
2026-04-28 13:06 40.42163 71.61410 6993 ft 176 kts 97°
2026-04-28 13:06 40.42044 71.63015 6996 ft 177 kts 97°
2026-04-28 13:06 40.41926 71.64623 6991 ft 177 kts 97°
2026-04-28 13:07 40.41806 71.66233 6997 ft 177 kts 97°
2026-04-28 13:07 40.41687 71.67844 6998 ft 178 kts 97°
2026-04-28 13:07 40.41566 71.69459 6990 ft 178 kts 97°
2026-04-28 13:07 40.41446 71.71077 6997 ft 178 kts 97°
2026-04-28 13:08 40.41326 71.72686 6995 ft 177 kts 97°
2026-04-28 13:08 40.41273 71.74294 6992 ft 178 kts 83°
2026-04-28 13:08 40.41704 71.75802 6989 ft 177 kts 57°
2026-04-28 13:08 40.42441 71.77092 6984 ft 176 kts 52°
2026-04-28 13:09 40.43175 71.78373 6989 ft 176 kts 52°
2026-04-28 13:09 40.43913 71.79660 6989 ft 176 kts 52°
2026-04-28 13:09 40.44649 71.80945 6982 ft 177 kts 52°
2026-04-28 13:09 40.45388 71.82234 6984 ft 176 kts 52°
2026-04-28 13:10 40.46125 71.83520 6984 ft 176 kts 52°
2026-04-28 13:10 40.46850 71.84787 6982 ft 176 kts 52°
2026-04-28 13:10 40.47586 71.86072 6978 ft 176 kts 52°
2026-04-28 13:10 40.48325 71.87364 6979 ft 177 kts 52°
2026-04-28 13:11 40.49064 71.88657 6982 ft 177 kts 52°
2026-04-28 13:11 40.49801 71.89950 6978 ft 177 kts 53°
2026-04-28 13:11 40.50534 71.91250 6979 ft 176 kts 53°
2026-04-28 13:11 40.51261 71.92539 6974 ft 176 kts 53°
2026-04-28 13:12 40.51989 71.93830 6969 ft 175 kts 53°
2026-04-28 13:12 40.52716 71.95119 6967 ft 175 kts 53°
2026-04-28 13:12 40.53440 71.96404 6965 ft 175 kts 53°
2026-04-28 13:12 40.54165 71.97690 6963 ft 175 kts 53°
2026-04-28 13:13 40.54889 71.98976 6967 ft 175 kts 53°
2026-04-28 13:13 40.55612 72.00260 6969 ft 175 kts 53°
2026-04-28 13:13 40.56336 72.01546 6960 ft 174 kts 53°
2026-04-28 13:13 40.57057 72.02827 6963 ft 174 kts 54°
2026-04-28 13:14 40.57778 72.04109 6961 ft 174 kts 54°
2026-04-28 13:14 40.58499 72.05392 6955 ft 175 kts 54°
2026-04-28 13:14 40.59215 72.06667 6953 ft 176 kts 54°
2026-04-28 13:14 40.59944 72.07964 6956 ft 176 kts 54°
2026-04-28 13:15 40.60669 72.09256 6954 ft 176 kts 54°
2026-04-28 13:15 40.61396 72.10550 6954 ft 175 kts 54°
2026-04-28 13:15 40.62121 72.11843 6965 ft 175 kts 54°
2026-04-28 13:15 40.62846 72.13138 6963 ft 175 kts 54°
2026-04-28 13:16 40.63569 72.14426 6952 ft 175 kts 54°
2026-04-28 13:16 40.64290 72.15714 6958 ft 174 kts 54°
2026-04-28 13:16 40.65010 72.16996 6963 ft 174 kts 54°
2026-04-28 13:16 40.65727 72.18280 6964 ft 174 kts 54°
2026-04-28 13:17 40.66447 72.19566 6979 ft 175 kts 54°
2026-04-28 13:17 40.67168 72.20855 6984 ft 175 kts 54°
2026-04-28 13:17 40.67881 72.22129 6984 ft 175 kts 54°
2026-04-28 13:17 40.68601 72.23419 6985 ft 175 kts 54°
2026-04-28 13:18 40.69304 72.24729 6992 ft 175 kts 62°
2026-04-28 13:18 40.69711 72.26225 6992 ft 174 kts 73°
2026-04-28 13:18 40.70090 72.27738 6987 ft 174 kts 72°
2026-04-28 13:18 40.70471 72.29245 6986 ft 174 kts 72°
2026-04-28 13:19 40.70855 72.30775 6944 ft 176 kts 72°
2026-04-28 13:19 40.71236 72.32296 6946 ft 175 kts 72°
2026-04-28 13:19 40.71618 72.33819 6947 ft 174 kts 72°
2026-04-28 13:19 40.71997 72.35338 6945 ft 174 kts 72°
2026-04-28 13:20 40.72374 72.36844 6948 ft 173 kts 72°
2026-04-28 13:20 40.72752 72.38360 6915 ft 175 kts 72°
2026-04-28 13:20 40.73135 72.39898 6823 ft 179 kts 73°
2026-04-28 13:20 40.73529 72.41478 6710 ft 183 kts 72°
2026-04-28 13:21 40.73923 72.43062 6582 ft 180 kts 72°
2026-04-28 13:21 40.74313 72.44622 6466 ft 178 kts 73°
2026-04-28 13:21 40.74698 72.46164 6335 ft 177 kts 73°
2026-04-28 13:21 40.75079 72.47701 6221 ft 176 kts 73°
2026-04-28 13:22 40.75462 72.49236 6098 ft 175 kts 72°
2026-04-28 13:22 40.75728 72.50784 5983 ft 173 kts 90°
2026-04-28 13:22 40.75487 72.52326 5868 ft 172 kts 115°
2026-04-28 13:22 40.74838 72.53646 5754 ft 172 kts 128°
2026-04-28 13:23 40.74155 72.54908 5636 ft 171 kts 127°
2026-04-28 13:23 40.73466 72.56187 5523 ft 172 kts 127°
2026-04-28 13:23 40.72769 72.57475 5436 ft 172 kts 127°
2026-04-28 13:23 40.72075 72.58757 5322 ft 172 kts 127°
2026-04-28 13:24 40.71381 72.60037 5205 ft 172 kts 127°
2026-04-28 13:24 40.70684 72.61322 5089 ft 172 kts 126°
2026-04-28 13:24 40.69986 72.62608 4988 ft 172 kts 127°
2026-04-28 13:24 40.69305 72.63861 4877 ft 162 kts 126°
2026-04-28 13:25 40.68692 72.64993 4771 ft 144 kts 126°
2026-04-28 13:25 40.68127 72.66038 4648 ft 137 kts 127°
2026-04-28 13:25 40.67583 72.67040 4539 ft 134 kts 127°
2026-04-28 13:25 40.67048 72.68023 4495 ft 129 kts 126°
2026-04-28 13:26 40.66532 72.68974 4465 ft 128 kts 126°
2026-04-28 13:26 40.66000 72.69948 4326 ft 134 kts 126°
2026-04-28 13:26 40.65453 72.70949 4158 ft 138 kts 126°
2026-04-28 13:26 40.64887 72.71990 3982 ft 141 kts 126°
2026-04-28 13:27 40.64313 72.73043 3804 ft 142 kts 126°
2026-04-28 13:27 40.63734 72.74109 3617 ft 144 kts 125°
2026-04-28 13:27 40.63205 72.75081 3437 ft 119 kts 125°
2026-04-28 13:27 40.62737 72.75947 3273 ft 114 kts 125°
2026-04-28 13:28 40.62281 72.76784 3124 ft 112 kts 126°
2026-04-28 13:28 40.61830 72.77611 2976 ft 111 kts 126°
2026-04-28 13:28 40.61401 72.78410 2882 ft 98 kts 125°
2026-04-28 13:28 40.61085 72.78990 2881 ft 40 kts 125°
2026-04-28 13:29 40.60989 72.79098 2885 ft 13 kts 179°
2026-04-28 13:29 40.60906 72.79032 2888 ft 16 kts 214°
2026-04-28 13:29 40.60834 72.79044 2890 ft 14 kts 129°
2026-04-28 13:29 40.60769 72.79105 2892 ft 0 kts 123°